Location: Guayaquil
(2.1667°S, 79.9000°W)
Time: 09:22:29
(UTC-05:00)

DNEPR OBJECT AB - Visible Passes

Search period start: 23 March 2017 00:00
Search period end: 02 April 2017 00:00
Orbit: 589 x 703 km, 97.6° (Epoch: 21 March)

Date Brightness Start Highest point End Pass type
(mag) Time Alt. Az. Time Alt. Az. Time Alt. Az.
23 Mar ? 19:33:26 28° ESE 19:34:51 33° ENE 19:39:05 10° NNE visible
23 Mar ? 21:11:09 12° WSW 21:11:14 12° WSW 21:12:57 10° W visible
24 Mar ? 19:59:14 55° SSE 20:00:13 76° E 20:04:57 10° N visible
25 Mar ? 20:25:02 45° SW 20:25:36 48° WSW 20:30:11 10° NNW visible
26 Mar ? 19:13:07 16° ESE 19:14:37 19° ENE 19:17:54 10° NE visible
26 Mar ? 20:50:51 22° WSW 20:51:00 22° WSW 20:54:38 10° NW visible
27 Mar ? 19:38:54 35° ESE 19:40:00 40° ENE 19:44:26 10° N visible
28 Mar ? 20:04:42 66° S 20:05:22 90° SW 20:10:09 10° NNW visible
29 Mar ? 20:30:29 40° WSW 20:30:46 40° WSW 20:35:13 10° NNW visible
30 Mar ? 19:18:33 20° E 19:19:46 22° ENE 19:23:26 10° NNE visible
30 Mar ? 20:56:16 19° W 20:56:16 19° W 20:59:26 10° WNW visible
31 Mar ? 19:44:20 44° ESE 19:45:09 48° ENE 19:49:44 10° N visible
01 Apr ? 20:10:07 70° SSW 20:10:31 76° WSW 20:15:17 10° NNW visible
